Location: Taueru
(40.9667°S, 175.8000°E)
Time: 20:55:50
(UTC+00:00)

Daily predictions for brighter satellites

Satellite Brightness Start Highest point End
(mag) Time Altitude Azimuth Time Altitude Azimuth Time Altitude Azimuth
USA 59 Rocket 3.8 12:41:38 10° WSW 12:49:27 23° SSW 12:57:10 10° SSE
Cosmos 1980 Rocket 4.5 14:06:20 20° SE 14:06:20 20° SE 14:08:09 10° SE
ATLAS 2AS CENTAUR R/B 3.7 14:27:50 41° ESE 14:27:50 41° ESE 14:32:44 10° SE
USA 59 Rocket 4.0 14:36:32 10° SW 14:43:48 20° S 14:50:25 10° SE
Cosmos 2322 Rocket 4.1 15:07:06 20° NE 15:08:55 23° E 15:13:15 10° SE
H-2A R/B 2.6 15:26:50 51° S 15:26:50 51° S 15:30:46 10° S
Cosmos 1727 Rocket 4.0 15:19:35 10° S 15:25:25 75° SSW 15:25:25 75° SSW
ATLAS CENTAUR R/B 3.8 15:19:33 10° SW 15:28:38 60° SE 15:34:49 10° ENE
Meteor 2-2 Rocket 4.3 15:29:21 10° S 15:35:13 78° E 15:37:08 45° NNE
Meteor 2-3 Rocket 3.6 15:36:32 84° S 15:36:32 84° S 15:42:07 10° S
SL-16 R/B 2.4 15:36:32 62° NE 15:37:08 67° ENE 15:42:50 10° SSE
Cosmos 2278 3.6 15:41:15 84° N 15:41:27 88° ENE 15:47:15 10° SSE
Cosmos 1484 Rocket 4.2 15:43:42 35° SE 15:43:42 35° SE 15:46:26 10° S
Cosmos 1980 Rocket 3.6 15:48:05 24° SW 15:48:05 24° SW 15:51:39 10° S
Cosmos 1821 Rocket 4.5 15:52:55 43° WSW 15:52:55 43° WSW 15:58:22 10° S
Cosmos 2333 Rocket 3.3 15:48:48 19° NNE 15:52:25 40° ENE 15:57:43 10° SE
Cosmos 1777 Rocket 3.8 15:48:39 10° SSW 15:53:57 83° WNW 15:59:10 10° NNE
CBERS-1 4.3 15:51:22 10° NNE 15:56:28 67° ESE 16:01:38 10° S
Thor Agena Rocket 3.7 15:57:33 56° WSW 15:57:33 56° WSW 16:02:02 10° SSW
Cosmos 2227 4.3 15:51:33 10° SSW 15:57:24 80° ESE 16:03:11 10° NNE
CZ-2C R/B 3.8 15:52:51 10° S 15:56:26 29° SW 15:56:26 29° SW
Cosmos 1825 Rocket 4.4 15:57:43 25° NNE 15:59:53 48° E 16:04:07 10° SSE
Cosmos 2239 Rocket 4.5 15:59:42 54° WNW 16:00:18 56° W 16:06:31 10° S
GP-B 4.1 15:58:58 10° SSE 16:03:18 47° E 16:07:35 10° NNE
BlueWalker 3 3.5 16:07:29 25° SSW 16:08:52 33° SSE 16:12:19 10° E
NOSS 3-1 (A) 3.0 16:07:42 10° SW 16:13:57 74° WNW 16:19:01 10° NNE
Cosmos 2221 3.0 16:11:31 10° S 16:15:50 60° E 16:20:06 10° NNE
Cosmos 468 Rocket 4.5 16:11:54 17° N 16:16:01 61° ENE 16:21:17 10° SSE
Cosmos 1763 Rocket 3.4 16:14:10 37° NNW 16:16:20 85° WSW 16:21:44 10° SSE
ARGOS 3.1 16:11:08 10° NNE 16:16:35 87° WNW 16:22:07 10° SSW
ATLAS 3B R/B 2.6 16:10:43 10° SSW 16:16:57 73° SE 16:23:18 10° NE
ATLAS 2AS CENTAUR R/B 3.4 16:15:16 32° WSW 16:17:07 37° SW 16:23:39 10° SSE
Cosmos 1939 Rocket 3.3 16:18:24 42° SW 16:18:24 42° SW 16:21:09 10° SSW
ISS -3.4 16:18:46 58° NE 16:18:47 58° NE 16:22:11 10° ESE
Cosmos 1605 Rocket 4.0 16:17:44 10° N 16:23:51 81° E 16:30:05 10° S
Cosmos 1340 Rocket 3.6 16:21:34 10° SSW 16:24:14 36° SW 16:24:14 36° SW
UNK 3.9 16:20:57 10° SSE 16:25:39 73° ENE 16:30:17 10° N
BREEZE M DEB (TANK) 2.1 16:28:23 49° SSW 16:28:23 49° SSW 16:32:01 10° SE
Cosmos 1602 Rocket 4.3 16:30:00 33° WSW 16:30:00 33° WSW 16:33:30 10° S
Cosmos 1844 3.8 16:25:28 10° SSW 16:31:22 82° ESE 16:37:08 10° NNE
USA 276 4.0 16:32:36 14° SSE 16:32:36 14° SSE 16:33:53 10° ESE
SL-16 R/B 2.5 16:28:34 10° S 16:34:47 72° WSW 16:40:57 10° NNW
Cosmos 2360 Rocket 2.1 16:31:07 19° NNW 16:35:18 85° WSW 16:41:03 10° SSE
Meteor 2-6 Rocket 4.4 16:29:37 10° S 16:35:41 86° E 16:41:40 10° N
USA 59 Rocket 3.2 16:28:06 10° SSW 16:37:15 37° SE 16:44:33 10° E
Cosmos 1535 Rocket 4.4 16:32:12 10° NNW 16:38:17 67° W 16:44:30 10° S
Cosmos 1354 Rocket 4.4 16:34:01 10° SW 16:38:54 39° WNW 16:43:43 10° N
BREEZE-M DEB (TANK) 3.8 16:37:43 23° WSW 16:40:00 52° SSE 16:49:24 10° E
Cosmos 1812 Rocket 4.2 16:36:24 10° SSW 16:40:29 34° W 16:41:05 33° WNW
USA 305 4.4 16:42:46 18° SW 16:43:48 20° SSW 16:46:48 10° SSE
USA 307 3.3 16:43:31 29° SW 16:44:12 32° SSW 16:47:38 10° SE
ARIANE 5 R/B 2.7 16:39:58 10° NNE 16:44:58 76° ESE 16:50:03 10° S
Cosmos 1076 Rocket 3.9 16:41:38 10° N 16:45:58 67° E 16:50:22 10° SSE
USA 281 3.4 16:39:24 10° SSE 16:46:03 74° ENE 16:52:37 10° NNW
Cosmos 2219 Rocket 2.6 16:42:32 10° N 16:48:03 64° ENE 16:53:39 10° SSE
Cosmos 2322 Rocket 2.4 16:48:56 21° NW 16:52:32 49° WSW 16:58:03 10° SSE
SL-08 RB Rocket 3.8 16:50:53 10° N 16:55:15 49° W 16:59:44 10° SSW
DMSP B5D2-2 4.1 16:50:42 10° SSE 16:56:00 88° ENE 17:01:14 10° NNW
USA 229 DEB 3.8 16:51:54 10° SSW 16:58:29 70° SE 17:04:27 10° NE
Cosmos 1844 Rocket 2.8 16:53:22 10° SSW 16:58:48 52° WNW 17:04:11 10° N
USA 229 3.8 16:52:13 10° SSW 16:58:48 69° SE 17:04:49 10° NE
BREEZE-M DEB (TANK) 4.5 16:53:36 10° WSW 16:59:01 29° S 17:02:32 10° ESE
Lacrosse 4 Rocket 2.5 16:56:52 10° SSW 17:00:42 43° ESE 17:04:33 10° NE
Cosmos 1953 Rocket 3.6 16:56:20 10° NNW 17:00:46 59° W 17:05:16 10° S
H-2A R/B 2.1 16:58:11 10° N 17:01:08 53° W 17:04:09 10° SSW
SJ-11-01 4.2 16:58:37 10° N 17:03:16 69° WNW 17:07:58 10° SSW
H-2A R/B 4.0 17:07:21 11° WSW 17:07:21 11° WSW 17:07:54 10° WSW
USA 267 3.3 16:59:29 10° SE 17:06:07 86° SW 17:12:40 10° NW
Cosmos 2346 Rocket 4.5 17:01:48 10° S 17:08:03 88° W 17:14:19 10° N
CZ-2D R/B 3.8 17:04:19 10° NNE 17:08:13 64° ESE 17:12:08 10° S
Cosmos 2151 3.6 17:07:05 10° NW 17:11:01 36° WSW 17:15:00 10° S
ATLAS CENTAUR R/B 3.6 17:09:46 10° SW 17:16:51 35° WNW 17:21:48 10° N
Cosmos 540 Rocket 4.2 17:13:07 12° NW 17:17:21 32° WSW 17:22:02 10° S
Cosmos 292 Rocket 4.5 17:14:01 10° SW 17:18:18 31° W 17:22:31 10° NNW
NOAA 12 4.5 17:13:45 10° NNW 17:18:46 41° W 17:23:52 10° SSW
Cosmos 1898 Rocket 3.5 17:16:15 10° SSW 17:21:32 79° WNW 17:26:47 10° NNE
SL-16 R/B 3.6 17:18:24 13° W 17:21:45 20° SW 17:25:56 10° S
Cosmos 1626 3.1 17:24:06 10° S 17:27:01 41° E 17:29:52 10° NNE
SL-19 R/B 4.4 17:22:19 10° N 17:28:06 77° WNW 17:34:18 10° SSW
SMAP 3.8 17:24:46 10° NNE 17:29:23 59° ESE 17:34:03 10° S
Cosmos 2100 Rocket 4.0 17:23:19 10° N 17:29:29 85° W 17:35:48 10° S
Timation 2 Rocket 4.0 17:23:11 10° SSW 17:29:42 81° WNW 17:35:52 10° NNE
Cosmos 372 Rocket 3.9 17:26:12 10° SSW 17:31:21 72° WNW 17:36:26 10° N
Cosmos 1459 Rocket 4.1 17:25:21 10° N 17:31:45 89° W 17:38:12 10° S
Meteor 2-8 Rocket 4.5 17:27:00 10° N 17:33:07 86° W 17:39:17 10° S
Cosmos 2333 Rocket 3.1 17:31:49 10° WNW 17:36:47 30° SW 17:41:48 10° S
USA 234 4.0 17:32:06 10° ENE 17:38:28 54° SSE 17:44:51 10° SW
CZ-2D R/B 3.4 17:37:22 10° N 17:40:48 45° W 17:44:17 10° SSW
Centaur D AC-28 3.6 17:38:50 10° NW 17:41:16 14° NNW 17:43:10 10° NNE
Meteor 1-20 Rocket 4.4 17:38:45 10° NNW 17:44:20 53° WSW 17:49:53 10° S
Meteor 1-25 Rocket 4.3 17:40:40 10° NNW 17:46:23 64° WSW 17:52:16 10° S
Cosmos 2322 3.8 17:40:53 10° NNW 17:46:37 80° WSW 17:52:26 10° SSE
Cosmos 2173 Rocket 4.0 17:40:46 10° NNW 17:46:48 65° W 17:52:57 10° S
